BX4AEF-8 Weather Reports


time (UTC)temp
F
wind
direction
speed
knots
gust
knots
rain 1hr
in
rain 24hr
in
rain mn
in
humidity
%
barometer
mb
20260505041336 94 0.0 0.0 0.00 0.00 0.00 43 991.8
20260505035336 94 0.0 0.0 0.00 0.00 0.00 43 991.8
20260505033336 93 0.0 0.0 0.00 0.00 0.00 43 991.8
20260505031336 93 0.0 0.0 0.00 0.00 0.00 42 991.9
20260505025336 93 0.0 0.0 0.00 0.00 0.00 42 992.2
20260505023336 93 0.0 0.0 0.00 0.00 0.00 42 992.2
20260505021335 93 0.0 0.0 0.00 0.00 0.00 42 992.0
20260505015336 92 0.0 0.0 0.00 0.00 0.00 43 991.9
20260505013336 91 0.0 0.0 0.00 0.00 0.00 43 992.2
20260505011336 91 0.0 0.0 0.00 0.00 0.00 45 992.2
20260505005336 89 0.0 0.0 0.00 0.00 0.00 46 992.1
20260505003336 92 0.0 0.0 0.00 0.00 0.00 43 991.9
20260505001336 92 0.0 0.0 0.00 0.00 0.00 43 991.8
20260504235336 92 0.0 0.0 0.00 0.00 0.00 43 991.9
20260504233335 92 0.0 0.0 0.00 0.00 0.00 43 991.8
20260504231336 92 0.0 0.0 0.00 0.00 0.00 43 991.6
20260504225336 92 0.0 0.0 0.00 0.00 0.00 43 991.3
20260504223336 92 0.0 0.0 0.00 0.00 0.00 43 991.2
20260504221336 92 0.0 0.0 0.00 0.00 0.00 43 991.1
20260504215336 92 0.0 0.0 0.00 0.00 0.00 43 991.1
20260504213336 91 0.0 0.0 0.00 0.00 0.00 44 990.7
20260504211336 91 0.0 0.0 0.00 0.00 0.00 45 990.9
20260504205336 91 0.0 0.0 0.00 0.00 0.00 46 990.8
20260504203336 90 0.0 0.0 0.00 0.00 0.00 47 990.6
20260504201336 90 0.0 0.0 0.00 0.00 0.00 47 990.4
20260504195335 90 0.0 0.0 0.00 0.00 0.00 47 990.3
20260504193336 90 0.0 0.0 0.00 0.00 0.00 46 990.3
20260504191336 90 0.0 0.0 0.00 0.00 0.00 46 990.2
20260504185335 90 0.0 0.0 0.00 0.00 0.00 46 990.2
20260504183336 90 0.0 0.0 0.00 0.00 0.00 45 990.0
20260504181336 91 0.0 0.0 0.00 0.00 0.00 45 990.3
20260504175336 91 0.0 0.0 0.00 0.00 0.00 44 990.5
20260504173336 91 0.0 0.0 0.00 0.00 0.00 43 990.6
20260504171336 92 0.0 0.0 0.00 0.00 0.00 42 990.8
20260504081335 94 0.0 0.0 0.00 0.00 0.00 33 989.7